Year,Month,Day,Hour,Minute,Value (Times are PST for temperature in C)
2012,07,06,00,00,10.50
2012,07,06,00,01,10.40
2012,07,06,00,02,10.40
2012,07,06,00,03,10.40
2012,07,06,00,04,10.40
2012,07,06,00,05,10.40
2012,07,06,00,06,10.40
2012,07,06,00,07,10.30
2012,07,06,00,08,10.30
2012,07,06,00,09,10.30
2012,07,06,00,10,10.30
2012,07,06,00,11,10.30
2012,07,06,00,12,10.30
2012,07,06,00,13,10.20
2012,07,06,00,14,10.20
2012,07,06,00,15,10.20
2012,07,06,00,16,10.20
2012,07,06,00,17,10.20
2012,07,06,00,18,10.20
2012,07,06,00,19,10.20
2012,07,06,00,20,10.20
2012,07,06,00,21,10.20
2012,07,06,00,22,10.20
2012,07,06,00,23,10.10
2012,07,06,00,24,10.10
2012,07,06,00,25,10.10
2012,07,06,00,26,10.10
2012,07,06,00,27,10.10
2012,07,06,00,28,10.10
2012,07,06,00,29,10.10
2012,07,06,00,30,10.10
2012,07,06,00,31,10.10
2012,07,06,00,32,10.10
2012,07,06,00,33,10.10
2012,07,06,00,34,10.10
2012,07,06,00,35,10.10
2012,07,06,00,36,10.10
2012,07,06,00,37,10.10
2012,07,06,00,38,10.10
2012,07,06,00,39,10.10
2012,07,06,00,40,10.00
2012,07,06,00,41,10.00
2012,07,06,00,42,10.00
2012,07,06,00,43,10.00
2012,07,06,00,44,10.00
2012,07,06,00,45,10.00
2012,07,06,00,46,10.00
2012,07,06,00,47,9.90
2012,07,06,00,48,9.90
2012,07,06,00,49,9.90
2012,07,06,00,50,9.90
2012,07,06,00,51,9.90
2012,07,06,00,52,9.90
2012,07,06,00,53,9.90
2012,07,06,00,54,9.90
2012,07,06,00,55,9.90
2012,07,06,00,56,9.90
2012,07,06,00,57,9.90
2012,07,06,00,58,9.90
2012,07,06,00,59,9.90
2012,07,06,01,00,9.90
2012,07,06,01,01,9.90
2012,07,06,01,02,9.90
2012,07,06,01,03,9.90
2012,07,06,01,04,9.90
2012,07,06,01,05,9.90
2012,07,06,01,06,9.80
2012,07,06,01,07,9.80
2012,07,06,01,08,9.80
2012,07,06,01,09,9.80
2012,07,06,01,10,9.80
2012,07,06,01,11,9.80
2012,07,06,01,12,9.80
2012,07,06,01,13,9.80
2012,07,06,01,14,9.80
2012,07,06,01,15,9.70
2012,07,06,01,16,9.70
2012,07,06,01,17,9.70
2012,07,06,01,18,9.70
2012,07,06,01,19,9.70
2012,07,06,01,20,9.70
2012,07,06,01,21,9.70
2012,07,06,01,22,9.70
2012,07,06,01,23,9.60
2012,07,06,01,24,9.60
2012,07,06,01,25,9.60
2012,07,06,01,26,9.60
2012,07,06,01,27,9.60
2012,07,06,01,28,9.60
2012,07,06,01,29,9.50
2012,07,06,01,30,9.50
2012,07,06,01,31,9.50
2012,07,06,01,32,9.50
2012,07,06,01,33,9.50
2012,07,06,01,34,9.50
2012,07,06,01,35,9.50
2012,07,06,01,36,9.50
2012,07,06,01,37,9.50
2012,07,06,01,38,9.50
2012,07,06,01,39,9.40
2012,07,06,01,40,9.40
2012,07,06,01,41,9.40
2012,07,06,01,42,9.40
2012,07,06,01,43,9.40
2012,07,06,01,44,9.40
2012,07,06,01,45,9.30
2012,07,06,01,46,9.30
2012,07,06,01,47,9.30
2012,07,06,01,48,9.30
2012,07,06,01,49,9.30
2012,07,06,01,50,9.30
2012,07,06,01,51,9.30
2012,07,06,01,52,9.30
2012,07,06,01,53,9.30
2012,07,06,01,54,9.30
2012,07,06,01,55,9.30
2012,07,06,01,56,9.30
2012,07,06,01,57,9.20
2012,07,06,01,58,9.30
2012,07,06,01,59,9.30
2012,07,06,02,00,9.30
2012,07,06,02,01,9.30
2012,07,06,02,02,9.30
2012,07,06,02,03,9.30
2012,07,06,02,04,9.30
2012,07,06,02,05,9.30
2012,07,06,02,06,9.20
2012,07,06,02,07,9.20
2012,07,06,02,08,9.20
2012,07,06,02,09,9.20
2012,07,06,02,10,9.20
2012,07,06,02,11,9.20
2012,07,06,02,12,9.20
2012,07,06,02,13,9.10
2012,07,06,02,14,9.10
2012,07,06,02,15,9.10
2012,07,06,02,16,9.10
2012,07,06,02,17,9.10
2012,07,06,02,18,9.10
2012,07,06,02,19,9.10
2012,07,06,02,20,9.10
2012,07,06,02,21,9.00
2012,07,06,02,22,9.10
2012,07,06,02,23,9.10
2012,07,06,02,24,9.10
2012,07,06,02,25,9.10
2012,07,06,02,26,9.10
2012,07,06,02,27,9.10
2012,07,06,02,28,9.10
2012,07,06,02,29,9.00
2012,07,06,02,30,9.00
2012,07,06,02,31,9.00
2012,07,06,02,32,9.00
2012,07,06,02,33,9.00
2012,07,06,02,34,9.00
2012,07,06,02,35,8.90
2012,07,06,02,36,8.90
2012,07,06,02,37,8.90
2012,07,06,02,38,8.90
2012,07,06,02,39,8.90
2012,07,06,02,40,8.90
2012,07,06,02,41,8.90
2012,07,06,02,42,8.90
2012,07,06,02,43,8.90
2012,07,06,02,44,8.90
2012,07,06,02,45,8.90
2012,07,06,02,46,8.90
2012,07,06,02,47,8.90
2012,07,06,02,48,8.90
2012,07,06,02,49,8.90
2012,07,06,02,50,8.90
2012,07,06,02,51,8.80
2012,07,06,02,52,8.80
2012,07,06,02,53,8.80
2012,07,06,02,54,8.80
2012,07,06,02,55,8.80
2012,07,06,02,56,8.80
2012,07,06,02,57,8.80
2012,07,06,02,58,8.80
2012,07,06,02,59,8.80
2012,07,06,03,00,8.80
2012,07,06,03,01,8.70
2012,07,06,03,02,8.70
2012,07,06,03,03,8.70
2012,07,06,03,04,8.70
2012,07,06,03,05,8.70
2012,07,06,03,06,8.80
2012,07,06,03,07,8.80
2012,07,06,03,08,8.80
2012,07,06,03,09,8.80
2012,07,06,03,10,8.80
2012,07,06,03,11,8.80
2012,07,06,03,12,8.80
2012,07,06,03,13,8.70
2012,07,06,03,14,8.70
2012,07,06,03,15,8.70
2012,07,06,03,16,8.70
2012,07,06,03,17,8.70
2012,07,06,03,18,8.70
2012,07,06,03,19,8.70
2012,07,06,03,20,8.70
2012,07,06,03,21,8.70
2012,07,06,03,22,8.70
2012,07,06,03,23,8.70
2012,07,06,03,24,8.70
2012,07,06,03,25,8.70
2012,07,06,03,26,8.70
2012,07,06,03,27,8.70
2012,07,06,03,28,8.70
2012,07,06,03,29,8.70
2012,07,06,03,30,8.70
2012,07,06,03,31,8.70
2012,07,06,03,32,8.70
2012,07,06,03,33,8.70
2012,07,06,03,34,8.70
2012,07,06,03,35,8.70
2012,07,06,03,36,8.70
2012,07,06,03,37,8.70
2012,07,06,03,38,8.70
2012,07,06,03,39,8.70
2012,07,06,03,40,8.70
2012,07,06,03,41,8.70
2012,07,06,03,42,8.70
2012,07,06,03,43,8.70
2012,07,06,03,44,8.70
2012,07,06,03,45,8.60
2012,07,06,03,46,8.60
2012,07,06,03,47,8.60
2012,07,06,03,48,8.70
2012,07,06,03,49,8.70
2012,07,06,03,50,8.70
2012,07,06,03,51,8.60
2012,07,06,03,52,8.60
2012,07,06,03,53,8.60
2012,07,06,03,54,8.70
2012,07,06,03,55,8.70
2012,07,06,03,56,8.70
2012,07,06,03,57,8.70
2012,07,06,03,58,8.70
2012,07,06,03,59,8.70
2012,07,06,04,00,8.70
2012,07,06,04,01,8.70
2012,07,06,04,02,8.80
2012,07,06,04,03,8.80
2012,07,06,04,04,8.80
2012,07,06,04,05,8.80
2012,07,06,04,06,8.80
2012,07,06,04,07,8.80
2012,07,06,04,08,8.80
2012,07,06,04,09,8.80
2012,07,06,04,10,8.80
2012,07,06,04,11,8.80
2012,07,06,04,12,8.80
2012,07,06,04,13,8.80
2012,07,06,04,14,8.90
2012,07,06,04,15,8.90
2012,07,06,04,16,8.90
2012,07,06,04,17,8.90
2012,07,06,04,18,8.90
2012,07,06,04,19,8.90
2012,07,06,04,20,8.90
2012,07,06,04,21,9.00
2012,07,06,04,22,9.00
2012,07,06,04,23,9.00
2012,07,06,04,24,9.10
2012,07,06,04,25,9.10
2012,07,06,04,26,9.10
2012,07,06,04,27,9.20
2012,07,06,04,28,9.20
2012,07,06,04,29,9.20
2012,07,06,04,30,9.30
2012,07,06,04,31,9.30
2012,07,06,04,32,9.30
2012,07,06,04,33,9.30
2012,07,06,04,34,9.40
2012,07,06,04,35,9.40
2012,07,06,04,36,9.40
2012,07,06,04,37,9.40
2012,07,06,04,38,9.40
2012,07,06,04,39,9.40
2012,07,06,04,40,9.40
2012,07,06,04,41,9.40
2012,07,06,04,42,9.50
2012,07,06,04,43,9.50
2012,07,06,04,44,9.50
2012,07,06,04,45,9.60
2012,07,06,04,46,9.60
2012,07,06,04,47,9.60
2012,07,06,04,48,9.60
2012,07,06,04,49,9.70
2012,07,06,04,50,9.70
2012,07,06,04,51,9.70
2012,07,06,04,52,9.70
2012,07,06,04,53,9.70
2012,07,06,04,54,9.80
2012,07,06,04,55,9.80
2012,07,06,04,56,9.80
2012,07,06,04,57,9.80
2012,07,06,04,58,9.80
2012,07,06,04,59,9.80
2012,07,06,05,00,9.80
2012,07,06,05,01,9.90
2012,07,06,05,02,9.90
2012,07,06,05,03,9.90
2012,07,06,05,04,9.90
2012,07,06,05,05,9.90
2012,07,06,05,06,9.90
2012,07,06,05,07,10.00
2012,07,06,05,08,10.00
2012,07,06,05,09,10.00
2012,07,06,05,10,10.00
2012,07,06,05,11,10.10
2012,07,06,05,12,10.10
2012,07,06,05,13,10.10
2012,07,06,05,14,10.10
2012,07,06,05,15,10.10
2012,07,06,05,16,10.00
2012,07,06,05,17,10.00
2012,07,06,05,18,10.00
2012,07,06,05,19,10.00
2012,07,06,05,20,10.00
2012,07,06,05,21,10.00
2012,07,06,05,22,10.00
2012,07,06,05,23,10.00
2012,07,06,05,24,10.00
2012,07,06,05,25,10.00
2012,07,06,05,26,10.10
2012,07,06,05,27,10.10
2012,07,06,05,28,10.10
2012,07,06,05,29,10.10
2012,07,06,05,30,10.10
2012,07,06,05,31,10.20
2012,07,06,05,32,10.20
2012,07,06,05,33,10.30
2012,07,06,05,34,10.30
2012,07,06,05,35,10.30
2012,07,06,05,36,10.30
2012,07,06,05,37,10.20
2012,07,06,05,38,10.30
2012,07,06,05,39,10.30
2012,07,06,05,40,10.30
2012,07,06,05,41,10.30
2012,07,06,05,42,10.30
2012,07,06,05,43,10.30
2012,07,06,05,44,10.30
2012,07,06,05,45,10.40
2012,07,06,05,46,10.40
2012,07,06,05,47,10.30
2012,07,06,05,48,10.40
2012,07,06,05,49,10.40
2012,07,06,05,50,10.40
2012,07,06,05,51,10.40
2012,07,06,05,52,10.40
2012,07,06,05,53,10.40
2012,07,06,05,54,10.50
2012,07,06,05,55,10.60
2012,07,06,05,56,10.60
2012,07,06,05,57,10.70
2012,07,06,05,58,10.70
2012,07,06,05,59,10.80
2012,07,06,06,00,10.80
2012,07,06,06,01,10.80
2012,07,06,06,02,10.90
2012,07,06,06,03,11.00
2012,07,06,06,04,11.00
2012,07,06,06,05,11.00
2012,07,06,06,06,11.00
2012,07,06,06,07,10.90
2012,07,06,06,08,10.90
2012,07,06,06,09,11.00
2012,07,06,06,10,11.00
2012,07,06,06,11,11.00
2012,07,06,06,12,11.00
2012,07,06,06,13,11.10
2012,07,06,06,14,11.10
2012,07,06,06,15,11.10
2012,07,06,06,16,11.20
2012,07,06,06,17,11.20
2012,07,06,06,18,11.20
2012,07,06,06,19,11.30
2012,07,06,06,20,11.30
2012,07,06,06,21,11.30
2012,07,06,06,22,11.30
2012,07,06,06,23,11.30
2012,07,06,06,24,11.30
2012,07,06,06,25,11.30
2012,07,06,06,26,11.30
2012,07,06,06,27,11.30
2012,07,06,06,28,11.30
2012,07,06,06,29,11.30
2012,07,06,06,30,11.40
2012,07,06,06,31,11.40
2012,07,06,06,32,11.40
2012,07,06,06,33,11.40
2012,07,06,06,34,11.40
2012,07,06,06,35,11.40
2012,07,06,06,36,11.40
2012,07,06,06,37,11.50
2012,07,06,06,38,11.50
2012,07,06,06,39,11.50
2012,07,06,06,40,11.60
2012,07,06,06,41,11.60
2012,07,06,06,42,11.60
2012,07,06,06,43,11.60
2012,07,06,06,44,11.60
2012,07,06,06,45,11.60
2012,07,06,06,46,11.70
2012,07,06,06,47,11.70
2012,07,06,06,48,11.70
2012,07,06,06,49,11.70
2012,07,06,06,50,11.70
2012,07,06,06,51,11.70
2012,07,06,06,52,11.70
2012,07,06,06,53,11.70
2012,07,06,06,54,11.70
2012,07,06,06,55,11.80
2012,07,06,06,56,11.80
2012,07,06,06,57,11.80
2012,07,06,06,58,11.80
2012,07,06,06,59,11.80
2012,07,06,07,00,11.80
2012,07,06,07,01,11.80
2012,07,06,07,02,11.80
2012,07,06,07,03,11.80
2012,07,06,07,04,11.90
2012,07,06,07,05,11.90
2012,07,06,07,06,11.90
2012,07,06,07,07,11.90
2012,07,06,07,08,11.90
2012,07,06,07,09,11.90
2012,07,06,07,10,11.90
2012,07,06,07,11,12.00
2012,07,06,07,12,12.00
2012,07,06,07,13,12.00
2012,07,06,07,14,12.00
2012,07,06,07,15,12.10
2012,07,06,07,16,12.10
2012,07,06,07,17,12.10
2012,07,06,07,18,12.10
2012,07,06,07,19,12.10
2012,07,06,07,20,12.20
2012,07,06,07,21,12.20
2012,07,06,07,22,12.20
2012,07,06,07,23,12.20
2012,07,06,07,24,12.20
2012,07,06,07,25,12.20
2012,07,06,07,26,12.20
2012,07,06,07,27,12.20
2012,07,06,07,28,12.30
2012,07,06,07,29,12.30
2012,07,06,07,30,12.30
2012,07,06,07,31,12.30
2012,07,06,07,32,12.20
2012,07,06,07,33,12.20
2012,07,06,07,34,12.20
2012,07,06,07,35,12.20
2012,07,06,07,36,12.30
2012,07,06,07,37,12.30
2012,07,06,07,38,12.30
2012,07,06,07,39,12.30
2012,07,06,07,40,12.30
2012,07,06,07,41,12.30
2012,07,06,07,42,12.40
2012,07,06,07,43,12.40
2012,07,06,07,44,12.40
2012,07,06,07,45,12.40
2012,07,06,07,46,12.40
2012,07,06,07,47,12.50
2012,07,06,07,48,12.50
2012,07,06,07,49,12.50
2012,07,06,07,50,12.50
2012,07,06,07,51,12.50
2012,07,06,07,52,12.40
2012,07,06,07,53,12.40
2012,07,06,07,54,12.40
2012,07,06,07,55,12.40
2012,07,06,07,56,12.40
2012,07,06,07,57,12.50
2012,07,06,07,58,12.50
2012,07,06,07,59,12.50
2012,07,06,08,00,12.50
2012,07,06,08,01,12.50
2012,07,06,08,02,12.50
2012,07,06,08,03,12.50
2012,07,06,08,04,12.50
2012,07,06,08,05,12.50
2012,07,06,08,06,12.50
2012,07,06,08,07,12.50
2012,07,06,08,08,12.50
2012,07,06,08,09,12.50
2012,07,06,08,10,12.60
2012,07,06,08,11,12.60
2012,07,06,08,12,12.60
2012,07,06,08,13,12.60
2012,07,06,08,14,12.60
2012,07,06,08,15,12.60
2012,07,06,08,16,12.70
2012,07,06,08,17,12.70
2012,07,06,08,18,12.70
2012,07,06,08,19,12.70
2012,07,06,08,20,12.70
2012,07,06,08,21,12.80
2012,07,06,08,22,12.80
2012,07,06,08,23,12.80
2012,07,06,08,24,12.80
2012,07,06,08,25,12.80
2012,07,06,08,26,12.80
2012,07,06,08,27,12.90
2012,07,06,08,28,12.90
2012,07,06,08,29,12.80
2012,07,06,08,30,12.80
2012,07,06,08,31,12.90
2012,07,06,08,32,12.80
2012,07,06,08,33,12.80
2012,07,06,08,34,12.80
2012,07,06,08,35,12.80
2012,07,06,08,36,12.80
2012,07,06,08,37,12.80
2012,07,06,08,38,12.90
2012,07,06,08,39,12.90
2012,07,06,08,40,12.80
2012,07,06,08,41,12.80
2012,07,06,08,42,12.80
2012,07,06,08,43,12.80
2012,07,06,08,44,12.80
2012,07,06,08,45,12.90
2012,07,06,08,46,12.90
2012,07,06,08,47,12.90
2012,07,06,08,48,12.90
2012,07,06,08,49,12.90
2012,07,06,08,50,12.90
2012,07,06,08,51,12.90
2012,07,06,08,52,12.90
2012,07,06,08,53,12.90
2012,07,06,08,54,12.90
2012,07,06,08,55,12.90
2012,07,06,08,56,13.00
2012,07,06,08,57,13.00
2012,07,06,08,58,13.00
2012,07,06,08,59,13.00
2012,07,06,09,00,13.00
2012,07,06,09,01,13.00
2012,07,06,09,02,13.00
2012,07,06,09,03,13.00
2012,07,06,09,04,12.90
2012,07,06,09,05,12.90
2012,07,06,09,06,12.90
2012,07,06,09,07,12.90
2012,07,06,09,08,12.90
2012,07,06,09,09,13.00
2012,07,06,09,10,13.00
2012,07,06,09,11,13.10
2012,07,06,09,12,13.10
2012,07,06,09,13,13.10
2012,07,06,09,14,13.20
2012,07,06,09,15,13.20
2012,07,06,09,16,13.20
2012,07,06,09,17,13.20
2012,07,06,09,18,13.30
2012,07,06,09,19,13.30
2012,07,06,09,20,13.30
2012,07,06,09,21,13.40
2012,07,06,09,22,13.40
2012,07,06,09,23,13.40
2012,07,06,09,24,13.40
2012,07,06,09,25,13.40
2012,07,06,09,26,13.50
2012,07,06,09,27,13.50
2012,07,06,09,28,13.60
2012,07,06,09,29,13.60
2012,07,06,09,30,13.60
2012,07,06,09,31,13.60
2012,07,06,09,32,13.60
2012,07,06,09,33,13.60
2012,07,06,09,34,13.60
2012,07,06,09,35,13.70
2012,07,06,09,36,13.70
2012,07,06,09,37,13.70
2012,07,06,09,38,13.70
2012,07,06,09,39,13.80
2012,07,06,09,40,13.80
2012,07,06,09,41,13.90
2012,07,06,09,42,13.90
2012,07,06,09,43,14.00
2012,07,06,09,44,14.00
2012,07,06,09,45,14.00
2012,07,06,09,46,14.00
2012,07,06,09,47,14.00
2012,07,06,09,48,14.00
2012,07,06,09,49,14.00
2012,07,06,09,50,14.00
2012,07,06,09,51,14.00
2012,07,06,09,52,14.00
2012,07,06,09,53,14.00
2012,07,06,09,54,14.00
2012,07,06,09,55,14.00
2012,07,06,09,56,14.10
2012,07,06,09,57,14.10
2012,07,06,09,58,14.20
2012,07,06,09,59,14.20
2012,07,06,10,00,14.30
2012,07,06,10,01,14.30
2012,07,06,10,02,14.20
2012,07,06,10,03,14.20
2012,07,06,10,04,14.20
2012,07,06,10,05,14.20
2012,07,06,10,06,14.20
2012,07,06,10,07,14.20
2012,07,06,10,08,14.30
2012,07,06,10,09,14.30
2012,07,06,10,10,14.40
2012,07,06,10,11,14.50
2012,07,06,10,12,14.60
2012,07,06,10,13,14.70
2012,07,06,10,14,14.70
2012,07,06,10,15,14.70
2012,07,06,10,16,14.70
2012,07,06,10,17,14.70
2012,07,06,10,18,14.70
2012,07,06,10,19,14.60
2012,07,06,10,20,14.60
2012,07,06,10,21,14.60
2012,07,06,10,22,14.60
2012,07,06,10,23,14.60
2012,07,06,10,24,14.60
2012,07,06,10,25,14.60
2012,07,06,10,26,14.60
2012,07,06,10,27,14.60
2012,07,06,10,28,14.60
2012,07,06,10,29,14.60
2012,07,06,10,30,14.60
2012,07,06,10,31,14.50
2012,07,06,10,32,14.50
2012,07,06,10,33,14.50
2012,07,06,10,34,14.50
2012,07,06,10,35,14.50
2012,07,06,10,36,14.50
2012,07,06,10,37,14.60
2012,07,06,10,38,14.60
2012,07,06,10,39,14.60
2012,07,06,10,40,14.70
2012,07,06,10,41,14.70
2012,07,06,10,42,14.80
2012,07,06,10,43,14.80
2012,07,06,10,44,14.70
2012,07,06,10,45,14.70
2012,07,06,10,46,14.70
2012,07,06,10,47,14.70
2012,07,06,10,48,14.70
2012,07,06,10,49,14.70
2012,07,06,10,50,14.70
2012,07,06,10,51,14.80
2012,07,06,10,52,14.80
2012,07,06,10,53,14.90
2012,07,06,10,54,14.90
2012,07,06,10,55,14.90
2012,07,06,10,56,14.90
2012,07,06,10,57,14.90
2012,07,06,10,58,15.00
2012,07,06,10,59,15.10
2012,07,06,11,00,15.10
2012,07,06,11,01,15.20
2012,07,06,11,02,15.30
2012,07,06,11,03,15.30
2012,07,06,11,04,15.20
2012,07,06,11,05,15.20
2012,07,06,11,06,15.20
2012,07,06,11,07,15.20
2012,07,06,11,08,15.20
2012,07,06,11,09,15.20
2012,07,06,11,10,15.20
2012,07,06,11,11,15.20
2012,07,06,11,12,15.30
2012,07,06,11,13,15.30
2012,07,06,11,14,15.20
2012,07,06,11,15,15.20
2012,07,06,11,16,15.20
2012,07,06,11,17,15.20
2012,07,06,11,18,15.20
2012,07,06,11,19,15.30
2012,07,06,11,20,15.30
2012,07,06,11,21,15.40
2012,07,06,11,22,15.40
2012,07,06,11,23,15.40
2012,07,06,11,24,15.50
2012,07,06,11,25,15.50
2012,07,06,11,26,15.50
2012,07,06,11,27,15.40
2012,07,06,11,28,15.40
2012,07,06,11,29,15.40
2012,07,06,11,30,15.40
2012,07,06,11,31,15.40
2012,07,06,11,32,15.40
2012,07,06,11,33,15.40
2012,07,06,11,34,15.40
2012,07,06,11,35,15.40
2012,07,06,11,36,15.30
2012,07,06,11,37,15.30
2012,07,06,11,38,15.20
2012,07,06,11,39,15.10
2012,07,06,11,40,15.00
2012,07,06,11,41,15.00
2012,07,06,11,42,15.00
2012,07,06,11,43,15.00
2012,07,06,11,44,15.10
2012,07,06,11,45,15.20
2012,07,06,11,46,15.20
2012,07,06,11,47,15.30
2012,07,06,11,48,15.30
2012,07,06,11,49,15.30
2012,07,06,11,50,15.30
2012,07,06,11,51,15.30
2012,07,06,11,52,15.40
2012,07,06,11,53,15.50
2012,07,06,11,54,15.50
2012,07,06,11,55,15.50
2012,07,06,11,56,15.40
2012,07,06,11,57,15.30
2012,07,06,11,58,15.40
2012,07,06,11,59,15.40
2012,07,06,12,00,15.50
2012,07,06,12,01,15.50
2012,07,06,12,02,15.60
2012,07,06,12,03,15.60
2012,07,06,12,04,15.60
2012,07,06,12,05,15.50
2012,07,06,12,06,15.50
2012,07,06,12,07,15.50
2012,07,06,12,08,15.50
2012,07,06,12,09,15.60
2012,07,06,12,10,15.70
2012,07,06,12,11,15.70
2012,07,06,12,12,15.80
2012,07,06,12,13,15.80
2012,07,06,12,14,15.70
2012,07,06,12,15,15.60
2012,07,06,12,16,15.50
2012,07,06,12,17,15.50
2012,07,06,12,18,15.60
2012,07,06,12,19,15.60
2012,07,06,12,20,15.60
2012,07,06,12,21,15.60
2012,07,06,12,22,15.60
2012,07,06,12,23,15.70
2012,07,06,12,24,15.70
2012,07,06,12,25,15.70
2012,07,06,12,26,15.60
2012,07,06,12,27,15.60
2012,07,06,12,28,15.70
2012,07,06,12,29,15.70
2012,07,06,12,30,15.70
2012,07,06,12,31,15.70
2012,07,06,12,32,15.60
2012,07,06,12,33,15.60
2012,07,06,12,34,15.60
2012,07,06,12,35,15.60
2012,07,06,12,36,15.60
2012,07,06,12,37,15.50
2012,07,06,12,38,15.50
2012,07,06,12,39,15.60
2012,07,06,12,40,15.60
2012,07,06,12,41,15.70
2012,07,06,12,42,15.70
2012,07,06,12,43,15.70
2012,07,06,12,44,15.70
2012,07,06,12,45,15.70
2012,07,06,12,46,15.80
2012,07,06,12,47,15.90
2012,07,06,12,48,15.90
2012,07,06,12,49,15.90
2012,07,06,12,50,15.90
2012,07,06,12,51,15.90
2012,07,06,12,52,15.90
2012,07,06,12,53,16.00
2012,07,06,12,54,15.90
2012,07,06,12,55,15.80
2012,07,06,12,56,15.80
2012,07,06,12,57,15.80
2012,07,06,12,58,15.80
2012,07,06,12,59,15.80
2012,07,06,13,00,15.80
2012,07,06,13,01,15.90
2012,07,06,13,02,16.00
2012,07,06,13,03,16.00
2012,07,06,13,04,16.00
2012,07,06,13,05,16.00
2012,07,06,13,06,16.10
2012,07,06,13,07,16.10
2012,07,06,13,08,16.10
2012,07,06,13,09,16.10
2012,07,06,13,10,16.10
2012,07,06,13,11,16.10
2012,07,06,13,12,16.10
2012,07,06,13,13,15.90
2012,07,06,13,14,15.80
2012,07,06,13,15,15.70
2012,07,06,13,16,15.70
2012,07,06,13,17,15.70
2012,07,06,13,18,15.60
2012,07,06,13,19,15.60
2012,07,06,13,20,15.70
2012,07,06,13,21,15.80
2012,07,06,13,22,15.80
2012,07,06,13,23,15.90
2012,07,06,13,24,16.00
2012,07,06,13,25,16.10
2012,07,06,13,26,16.00
2012,07,06,13,27,15.90
2012,07,06,13,28,15.90
2012,07,06,13,29,15.90
2012,07,06,13,30,15.90
2012,07,06,13,31,15.80
2012,07,06,13,32,15.90
2012,07,06,13,33,16.00
2012,07,06,13,34,16.20
2012,07,06,13,35,16.30
2012,07,06,13,36,16.30
2012,07,06,13,37,16.40
2012,07,06,13,38,16.30
2012,07,06,13,39,16.30
2012,07,06,13,40,16.30
2012,07,06,13,41,16.20
2012,07,06,13,42,16.20
2012,07,06,13,43,16.20
2012,07,06,13,44,16.20
2012,07,06,13,45,16.20
2012,07,06,13,46,16.20
2012,07,06,13,47,16.20
2012,07,06,13,48,16.10
2012,07,06,13,49,16.10
2012,07,06,13,50,16.10
2012,07,06,13,51,16.20
2012,07,06,13,52,16.20
2012,07,06,13,53,16.20
2012,07,06,13,54,16.20
2012,07,06,13,55,16.20
2012,07,06,13,56,16.20
2012,07,06,13,57,16.10
2012,07,06,13,58,16.20
2012,07,06,13,59,16.20
2012,07,06,14,00,16.20
2012,07,06,14,01,16.30
2012,07,06,14,02,16.20
2012,07,06,14,03,16.30
2012,07,06,14,04,16.30
2012,07,06,14,05,16.30
2012,07,06,14,06,16.30
2012,07,06,14,07,16.30
2012,07,06,14,08,16.40
2012,07,06,14,09,16.50
2012,07,06,14,10,16.60
2012,07,06,14,11,16.60
2012,07,06,14,12,16.70
2012,07,06,14,13,16.70
2012,07,06,14,14,16.80
2012,07,06,14,15,16.80
2012,07,06,14,16,16.70
2012,07,06,14,17,16.70
2012,07,06,14,18,16.60
2012,07,06,14,19,16.60
2012,07,06,14,20,16.40
2012,07,06,14,21,16.30
2012,07,06,14,22,16.20
2012,07,06,14,23,16.10
2012,07,06,14,24,16.10
2012,07,06,14,25,16.10
2012,07,06,14,26,16.20
2012,07,06,14,27,16.30
2012,07,06,14,28,16.20
2012,07,06,14,29,16.20
2012,07,06,14,30,16.20
2012,07,06,14,31,16.20
2012,07,06,14,32,16.20
2012,07,06,14,33,16.20
2012,07,06,14,34,16.30
2012,07,06,14,35,16.40
2012,07,06,14,36,16.50
2012,07,06,14,37,16.50
2012,07,06,14,38,16.60
2012,07,06,14,39,16.50
2012,07,06,14,40,16.50
2012,07,06,14,41,16.50
2012,07,06,14,42,16.50
2012,07,06,14,43,16.40
2012,07,06,14,44,16.40
2012,07,06,14,45,16.30
2012,07,06,14,46,16.30
2012,07,06,14,47,16.30
2012,07,06,14,48,16.30
2012,07,06,14,49,16.20
2012,07,06,14,50,16.20
2012,07,06,14,51,16.20
2012,07,06,14,52,16.20
2012,07,06,14,53,16.20
2012,07,06,14,54,16.20
2012,07,06,14,55,16.20
2012,07,06,14,56,16.20
2012,07,06,14,57,16.10
2012,07,06,14,58,16.10
2012,07,06,14,59,16.20
2012,07,06,15,00,16.20
2012,07,06,15,01,16.30
2012,07,06,15,02,16.30
2012,07,06,15,03,16.50
2012,07,06,15,04,16.60
2012,07,06,15,05,16.70
2012,07,06,15,06,16.70
2012,07,06,15,07,16.70
2012,07,06,15,08,16.60
2012,07,06,15,09,16.60
2012,07,06,15,10,16.70
2012,07,06,15,11,16.70
2012,07,06,15,12,16.60
2012,07,06,15,13,16.60
2012,07,06,15,14,16.50
2012,07,06,15,15,16.40
2012,07,06,15,16,16.40
2012,07,06,15,17,16.40
2012,07,06,15,18,16.40
2012,07,06,15,19,16.30
2012,07,06,15,20,16.30
2012,07,06,15,21,16.30
2012,07,06,15,22,16.20
2012,07,06,15,23,16.10
2012,07,06,15,24,16.10
2012,07,06,15,25,16.00
2012,07,06,15,26,16.00
2012,07,06,15,27,15.90
2012,07,06,15,28,15.90
2012,07,06,15,29,15.80
2012,07,06,15,30,15.80
2012,07,06,15,31,15.90
2012,07,06,15,32,16.00
2012,07,06,15,33,16.10
2012,07,06,15,34,16.10
2012,07,06,15,35,16.10
2012,07,06,15,36,16.00
2012,07,06,15,37,16.10
2012,07,06,15,38,16.00
2012,07,06,15,39,15.90
2012,07,06,15,40,15.80
2012,07,06,15,41,15.90
2012,07,06,15,42,16.00
2012,07,06,15,43,16.00
2012,07,06,15,44,16.00
2012,07,06,15,45,16.10
2012,07,06,15,46,16.10
2012,07,06,15,47,16.00
2012,07,06,15,48,15.90
2012,07,06,15,49,16.00
2012,07,06,15,50,16.00
2012,07,06,15,51,16.00
2012,07,06,15,52,15.80
2012,07,06,15,53,15.80
2012,07,06,15,54,15.80
2012,07,06,15,55,15.80
2012,07,06,15,56,15.80
2012,07,06,15,57,15.80
2012,07,06,15,58,15.80
2012,07,06,15,59,15.80
2012,07,06,16,00,15.80
2012,07,06,16,01,15.80
2012,07,06,16,02,15.80
2012,07,06,16,03,15.90
2012,07,06,16,04,15.90
2012,07,06,16,05,16.10
2012,07,06,16,06,16.10
2012,07,06,16,07,16.20
2012,07,06,16,08,16.30
2012,07,06,16,09,16.20
2012,07,06,16,10,16.20
2012,07,06,16,11,16.20
2012,07,06,16,12,16.20
2012,07,06,16,13,16.30
2012,07,06,16,14,16.20
2012,07,06,16,15,16.10
2012,07,06,16,16,16.10
2012,07,06,16,17,16.10
2012,07,06,16,18,16.20
2012,07,06,16,19,16.20
2012,07,06,16,20,16.20
2012,07,06,16,21,16.30
2012,07,06,16,22,16.20
2012,07,06,16,23,16.20
2012,07,06,16,24,16.10
2012,07,06,16,25,15.90
2012,07,06,16,26,15.80
2012,07,06,16,27,15.80
2012,07,06,16,28,15.80
2012,07,06,16,29,15.90
2012,07,06,16,30,16.00
2012,07,06,16,31,16.10
2012,07,06,16,32,16.00
2012,07,06,16,33,16.00
2012,07,06,16,34,16.00
2012,07,06,16,35,16.00
2012,07,06,16,36,15.80
2012,07,06,16,37,15.80
2012,07,06,16,38,15.80
2012,07,06,16,39,15.80
2012,07,06,16,40,15.90
2012,07,06,16,41,15.90
2012,07,06,16,42,16.00
2012,07,06,16,43,16.00
2012,07,06,16,44,16.00
2012,07,06,16,45,15.90
2012,07,06,16,46,15.90
2012,07,06,16,47,15.80
2012,07,06,16,48,15.80
2012,07,06,16,49,15.90
2012,07,06,16,50,15.90
2012,07,06,16,51,16.00
2012,07,06,16,52,16.00
2012,07,06,16,53,16.10
2012,07,06,16,54,16.10
2012,07,06,16,55,16.10
2012,07,06,16,56,16.10
2012,07,06,16,57,16.00
2012,07,06,16,58,16.10
2012,07,06,16,59,16.00
2012,07,06,17,00,16.10
2012,07,06,17,01,16.10
2012,07,06,17,02,16.10
2012,07,06,17,03,16.10
2012,07,06,17,04,16.10
2012,07,06,17,05,16.10
2012,07,06,17,06,16.00
2012,07,06,17,07,16.00
2012,07,06,17,08,16.10
2012,07,06,17,09,16.10
2012,07,06,17,10,15.90
2012,07,06,17,11,15.80
2012,07,06,17,12,15.80
2012,07,06,17,13,15.90
2012,07,06,17,14,16.00
2012,07,06,17,15,16.10
2012,07,06,17,16,16.10
2012,07,06,17,17,16.10
2012,07,06,17,18,16.10
2012,07,06,17,19,16.10
2012,07,06,17,20,16.00
2012,07,06,17,21,16.00
2012,07,06,17,22,15.90
2012,07,06,17,23,16.00
2012,07,06,17,24,16.20
2012,07,06,17,25,16.30
2012,07,06,17,26,16.40
2012,07,06,17,27,16.40
2012,07,06,17,28,16.30
2012,07,06,17,29,16.30
2012,07,06,17,30,16.30